When you browse on this site, cookies collect data to enhance your experience and personalize the content and advertising you see.
Visit our Privacy Policy to learn more. By continuing to use the site, you agree to this use of cookies and data.
  • Em Portugal
  • Lista de países
  • Para 7 dias
  • Temperatura da água
  • Mapa do tempo
  • Widgets de tempo
  • user-avatar
    Iniciar Sessão

    Previsão horária em Mayrhofen

    Hoje, 8 Dezembro, Domingo

    Tempo Temperatura Precipitação Vento Pressão Humidade
    00:00 -3°C° 0 mm 1 m/s 616 mmHg 81%
    01:00 -3°C° 0 mm 1 m/s 616 mmHg 75%
    02:00 -3°C° 0 mm 1 m/s 615 mmHg 71%
    03:00 -3°C° 0 mm 1 m/s 615 mmHg 66%
    04:00 -3°C° 0 mm 1 m/s 614 mmHg 62%
    05:00 -3°C° 0 mm 1 m/s 614 mmHg 59%
    06:00 -5°C° 0 mm 2 m/s 615 mmHg 57%
    07:00 -4°C° 0 mm 2 m/s 615 mmHg 55%
    08:00 -3°C° 0 mm 2 m/s 615 mmHg 56%
    09:00 -2°C° 0 mm 2 m/s 615 mmHg 57%
    10:00 -1°C° 0 mm 2 m/s 616 mmHg 58%
    11:00 +1°C° 0 mm 2 m/s 615 mmHg 61%
    12:00 +1°C° 0 mm 2 m/s 615 mmHg 64%
    13:00 +2°C° 0 mm 2 m/s 615 mmHg 67%
    14:00 +1°C° 0 mm 2 m/s 614 mmHg 67%
    15:00 -2°C° 0 mm 2 m/s 613 mmHg 68%
    16:00 -3°C° 0 mm 2 m/s 613 mmHg 68%
    17:00 -3°C° 0 mm 2 m/s 612 mmHg 66%
    18:00 -4°C° 0 mm 2 m/s 612 mmHg 64%
    19:00 -5°C° 0 mm 2 m/s 612 mmHg 61%
    20:00 -5°C° 0 mm 2 m/s 611 mmHg 62%
    21:00 -5°C° 0 mm 2 m/s 611 mmHg 63%
    22:00 -5°C° 0 mm 2 m/s 611 mmHg 64%
    23:00 -5°C° 0 mm 2 m/s 611 mmHg 66%

    Amanhã, 9 Dezembro, Segunda-feira

    Tempo Temperatura Precipitação Vento Pressão Humidade
    00:00 -5°C° 0 mm 2 m/s 610 mmHg 68%
    01:00 -5°C° 0 mm 2 m/s 610 mmHg 70%
    02:00 -5°C° 0 mm 2 m/s 610 mmHg 71%
    03:00 -5°C° 0 mm 2 m/s 609 mmHg 72%
    04:00 -4°C° 0 mm 2 m/s 609 mmHg 73%
    05:00 -3°C° 0 mm 1 m/s 609 mmHg 75%
    06:00 -3°C° 0 mm 1 m/s 608 mmHg 78%
    07:00 -4°C° 0 mm 1 m/s 608 mmHg 80%
    08:00 -3°C° 0 mm 1 m/s 609 mmHg 79%
    09:00 -3°C° 0 mm 1 m/s 609 mmHg 79%
    10:00 -2°C° 0 mm 1 m/s 609 mmHg 78%
    11:00 -1°C° 0 mm 1 m/s 609 mmHg 76%
    12:00 0°C° 0 mm 1 m/s 609 mmHg 74%
    13:00 +1°C° 0 mm 1 m/s 609 mmHg 71%
    14:00 0°C° 0 mm 1 m/s 609 mmHg 73%
    15:00 -1°C° 0 mm 1 m/s 609 mmHg 75%
    16:00 -2°C° 0 mm 1 m/s 608 mmHg 77%
    17:00 -3°C° 0.1 mm 1 m/s 609 mmHg 80%
    18:00 -3°C° 0.1 mm 1 m/s 609 mmHg 83%
    19:00 -6°C° 0.1 mm 2 m/s 610 mmHg 86%
    20:00 -6°C° 0.1 mm 2 m/s 610 mmHg 86%
    21:00 -6°C° 0.1 mm 2 m/s 611 mmHg 87%
    22:00 -6°C° 0.1 mm 2 m/s 611 mmHg 87%
    23:00 -6°C° 0.4 mm 2 m/s 612 mmHg 89%

    Depois de amanhã, 10 Dezembro, Terça-feira

    Tempo Temperatura Precipitação Vento Pressão Humidade
    00:00 -6°C° 0.4 mm 2 m/s 613 mmHg 91%
    01:00 -7°C° 0.4 mm 3 m/s 613 mmHg 94%
    02:00 -8°C° 0.5 mm 3 m/s 614 mmHg 94%
    03:00 -8°C° 0.5 mm 3 m/s 614 mmHg 94%
    04:00 -9°C° 0.5 mm 3 m/s 614 mmHg 94%
    05:00 -10°C° 0.1 mm 3 m/s 615 mmHg 93%
    06:00 -10°C° 0.1 mm 3 m/s 615 mmHg 93%
    07:00 -12°C° 0.1 mm 3 m/s 616 mmHg 93%
    08:00 -12°C° 0.1 mm 3 m/s 616 mmHg 91%
    09:00 -10°C° 0.1 mm 3 m/s 617 mmHg 89%
    10:00 -9°C° 0.1 mm 2 m/s 618 mmHg 87%
    11:00 -8°C° 0 mm 2 m/s 618 mmHg 82%
    12:00 -8°C° 0 mm 2 m/s 618 mmHg 78%
    13:00 -8°C° 0 mm 3 m/s 618 mmHg 73%
    14:00 -8°C° 0 mm 2 m/s 617 mmHg 75%
    15:00 -9°C° 0 mm 2 m/s 617 mmHg 76%
    16:00 -10°C° 0 mm 2 m/s 616 mmHg 78%
    17:00 -10°C° 0 mm 2 m/s 616 mmHg 68%
    18:00 -10°C° 0 mm 2 m/s 616 mmHg 59%
    19:00 -12°C° 0 mm 2 m/s 616 mmHg 49%
    20:00 -10°C° 0 mm 2 m/s 616 mmHg 43%
    21:00 -10°C° 0 mm 2 m/s 616 mmHg 38%
    22:00 -8°C° 0 mm 1 m/s 616 mmHg 32%
    23:00 -8°C° 0 mm 1 m/s 616 mmHg 31%

    11 Dezembro, Quarta-feira

    Tempo Temperatura Precipitação Vento Pressão Humidade
    00:00 -7°C° 0 mm 1 m/s 616 mmHg 29%
    01:00 -7°C° 0 mm 1 m/s 615 mmHg 28%
    02:00 -6°C° 0 mm 1 m/s 615 mmHg 28%
    03:00 -6°C° 0 mm 1 m/s 615 mmHg 27%
    04:00 -6°C° 0 mm 1 m/s 614 mmHg 27%
    05:00 -4°C° 0 mm 1 m/s 614 mmHg 26%
    06:00 -4°C° 0 mm 1 m/s 614 mmHg 26%
    07:00 -4°C° 0 mm 1 m/s 614 mmHg 26%
    08:00 -2°C° 0 mm 1 m/s 615 mmHg 30%
    09:00 -1°C° 0 mm 1 m/s 615 mmHg 35%
    10:00 +1°C° 0 mm 1 m/s 616 mmHg 39%
    11:00 +1°C° 0 mm 1 m/s 615 mmHg 45%
    12:00 +1°C° 0 mm 0 m/s 615 mmHg 50%
    13:00 +2°C° 0 mm 0 m/s 615 mmHg 56%
    14:00 0°C° 0 mm 0 m/s 614 mmHg 53%
    15:00 -2°C° 0 mm 0 m/s 613 mmHg 51%
    16:00 -4°C° 0 mm 0 m/s 612 mmHg 49%
    17:00 -3°C° 0 mm 1 m/s 612 mmHg 47%
    18:00 -4°C° 0 mm 1 m/s 611 mmHg 45%
    19:00 -6°C° 0 mm 1 m/s 611 mmHg 43%
    20:00 -6°C° 0 mm 1 m/s 611 mmHg 45%
    21:00 -6°C° 0 mm 1 m/s 611 mmHg 48%
    22:00 -6°C° 0 mm 1 m/s 611 mmHg 50%
    23:00 -6°C° 0 mm 1 m/s 611 mmHg 55%

    12 Dezembro, Quinta-feira

    Tempo Temperatura Precipitação Vento Pressão Humidade
    00:00 -6°C° 0 mm 1 m/s 610 mmHg 61%
    01:00 -6°C° 0 mm 1 m/s 610 mmHg 66%
    02:00 -6°C° 0.2 mm 1 m/s 610 mmHg 75%
    03:00 -6°C° 0.2 mm 1 m/s 610 mmHg 83%
    04:00 -6°C° 0.2 mm 1 m/s 610 mmHg 92%
    05:00 -6°C° 0.6 mm 1 m/s 610 mmHg 93%
    06:00 -6°C° 0.6 mm 1 m/s 610 mmHg 93%
    07:00 -7°C° 0.6 mm 2 m/s 610 mmHg 94%
    08:00 -7°C° 0.4 mm 2 m/s 610 mmHg 92%
    09:00 -6°C° 0.4 mm 2 m/s 611 mmHg 91%
    10:00 -6°C° 0.4 mm 2 m/s 611 mmHg 89%
    11:00 -6°C° 0.3 mm 2 m/s 611 mmHg 84%
    12:00 -6°C° 0.3 mm 2 m/s 611 mmHg 79%
    13:00 -6°C° 0.3 mm 2 m/s 611 mmHg 74%
    14:00 -7°C° 0 mm 2 m/s 610 mmHg 78%
    15:00 -7°C° 0 mm 1 m/s 610 mmHg 82%
    16:00 -8°C° 0 mm 1 m/s 610 mmHg 86%
    17:00 -9°C° 0 mm 1 m/s 610 mmHg 86%
    18:00 -10°C° 0 mm 1 m/s 610 mmHg 86%
    19:00 -13°C° 0 mm 2 m/s 610 mmHg 87%
    20:00 -11°C° 0 mm 1 m/s 610 mmHg 83%
    21:00 -11°C° 0 mm 1 m/s 609 mmHg 79%
    22:00 -11°C° 0 mm 1 m/s 609 mmHg 76%
    23:00 -13°C° 0 mm 2 m/s 609 mmHg 72%

    13 Dezembro, Sexta-feira

    Tempo Temperatura Precipitação Vento Pressão Humidade
    00:00 -13°C° 0 mm 2 m/s 608 mmHg 68%
    01:00 -13°C° 0 mm 2 m/s 608 mmHg 64%
    02:00 -13°C° 0 mm 3 m/s 607 mmHg 65%
    03:00 -13°C° 0 mm 3 m/s 607 mmHg 66%
    04:00 -13°C° 0 mm 3 m/s 606 mmHg 67%
    05:00 -12°C° 0.3 mm 4 m/s 606 mmHg 70%
    06:00 -12°C° 0.3 mm 4 m/s 606 mmHg 73%
    07:00 -11°C° 0.3 mm 4 m/s 606 mmHg 76%
    08:00 -11°C° 0.3 mm 4 m/s 606 mmHg 77%
    09:00 -10°C° 0.3 mm 4 m/s 606 mmHg 78%
    10:00 -10°C° 0.3 mm 4 m/s 606 mmHg 79%
    11:00 -9°C° 0.5 mm 4 m/s 606 mmHg 82%
    12:00 -8°C° 0.5 mm 3 m/s 605 mmHg 84%
    13:00 -7°C° 0.5 mm 3 m/s 605 mmHg 86%
    14:00 -6°C° 0.3 mm 2 m/s 605 mmHg 88%
    15:00 -6°C° 0.3 mm 2 m/s 604 mmHg 89%
    16:00 -6°C° 0.3 mm 1 m/s 604 mmHg 91%
    17:00 -4°C° 1.4 mm 1 m/s 605 mmHg 93%
    18:00 -4°C° 1.4 mm 1 m/s 605 mmHg 94%
    19:00 -3°C° 1.4 mm 1 m/s 605 mmHg 96%
    20:00 -3°C° 3 mm 1 m/s 606 mmHg 96%
    21:00 -2°C° 3 mm 1 m/s 606 mmHg 96%
    22:00 -2°C° 3 mm 1 m/s 607 mmHg 97%
    23:00 -2°C° 2.6 mm 1 m/s 607 mmHg 97%
    Mostrar mais